Volver al catálogo

STARLINK-32556

ActivoComunicacionesVLEO
NORAD 61858·PAYLOAD·🇺🇸 United States

Lanzado Nov 7, 2024 desde Cape Canaveral Space Force Station

Loading…

Próximos Pases (próximas 24 horas)

TLE

ActualizadoSource: CelesTrak SupGP

Época: Sep 15, 2026, 03:23 UTC

1 61858C 24202P   26258.14145833 -.00038884  00000+0 -14075-2 0  2589
2 61858  43.0006 247.9956 0001178 261.4052  62.4036 15.27617860    17

Sigue STARLINK-32556 en tiempo real con AllMySat

Download on the App Store